Shenandoah, IA

8:26 AM CDT on July 21, 2017 (GMT -0500)
Shenandoah Municipal

Weather History for KSDA - June, 2013

Change the Weather History Date:

Saturday, June 29, 2013

  Actual Average Record
Temperature  
Mean Temperature 70 °F -  
Max Temperature 78 °F 88 °F 99 °F (1963)
Min Temperature 62 °F 65 °F 50 °F (1950)
Cooling Degree Days 5    
Growing Degree Days 20 (Base 50)    
Moisture  
Dew Point 55 °F    
Average Humidity 59    
Maximum Humidity 77    
Minimum Humidity 42    
Precipitation  
Precipitation 0.00 in - - ()
Sea Level Pressure  
Sea Level Pressure 29.90 in    
Wind  
Wind Speed 9 mph (NNW)    
Max Wind Speed 23 mph    
Max Gust Speed 37 mph    
Visibility 10 miles    
Events Rain    
Averages and records for this station are not official NWS values.
T = Trace of Precipitation, MM = Missing Value Source: NWS Daily Summary

Daily Weather History Graph

Daily Weather History Graph

Search for Another Location

Airport or City:

Trip Planner

Search our weather history database for the weather conditions in past years. The results will help you decide how hot, cold, wet, or windy it might be!

Date:

Astronomy

Jun. 29, 2013 Rise Set
Actual Time 5:53 AM CDT 8:56 PM CDT
Civil Twilight 5:19 AM CDT 9:30 PM CDT
Nautical Twilight 4:37 AM CDT 10:12 PM CDT
Astronomical Twilight 3:47 AM CDT 11:02 PM CDT
Moon 12:23 AM CDT (6/29) 1:08 PM CDT (6/29)
Length of Visible Light 16h 10m
Length of Day
15h 03m
Waning Gibbous, 55% of the Moon is Illuminated
Jun 29
Waning Gibbous
Jun 29
Last Quarter
Jul 8
New
Jul 15
First Quarter
Jul 22
Full

Hourly Weather History & Observations

Time (CDT) Temp. Dew Point Humidity Pressure Visibility Wind Dir Wind Speed Gust Speed Precip Events Conditions
12:15 AM 69.8 °F 53.6 °F 56% 29.91 in 10.0 mi NW 6.9 mph - N/A   Scattered Clouds
12:35 AM 69.8 °F 53.6 °F 56% 29.90 in 10.0 mi NW 5.8 mph - N/A   Scattered Clouds
12:55 AM 69.8 °F 53.6 °F 56% 29.90 in 10.0 mi NW 5.8 mph - N/A   Scattered Clouds
1:15 AM 66.2 °F 53.6 °F 64% 29.90 in 10.0 mi NW 5.8 mph - N/A   Scattered Clouds
1:35 AM 66.2 °F 53.6 °F 64% 29.89 in 10.0 mi NW 6.9 mph - N/A   Scattered Clouds
1:55 AM 66.2 °F 53.6 °F 64% 29.89 in 10.0 mi NW 8.1 mph - N/A   Scattered Clouds
2:15 AM 66.2 °F 53.6 °F 64% 29.89 in 10.0 mi WNW 8.1 mph - N/A   Scattered Clouds
2:35 AM 64.4 °F 53.6 °F 68% 29.89 in 10.0 mi WNW 6.9 mph - N/A   Scattered Clouds
2:55 AM 66.2 °F 53.6 °F 64% 29.89 in 10.0 mi WNW 6.9 mph - N/A   Scattered Clouds
3:15 AM 64.4 °F 53.6 °F 68% 29.89 in 10.0 mi WNW 8.1 mph - N/A   Scattered Clouds
3:35 AM 64.4 °F 53.6 °F 68% 29.88 in 10.0 mi WNW 6.9 mph - N/A   Scattered Clouds
3:55 AM 64.4 °F 55.4 °F 73% 29.89 in 10.0 mi WNW 6.9 mph - N/A   Scattered Clouds
4:15 AM 64.4 °F 53.6 °F 68% 29.89 in 10.0 mi WNW 8.1 mph - N/A   Clear
4:35 AM 64.4 °F 53.6 °F 68% 29.89 in 10.0 mi NW 6.9 mph - N/A   Scattered Clouds
4:55 AM 64.4 °F 53.6 °F 68% 29.89 in 10.0 mi NW 8.1 mph - N/A   Scattered Clouds
5:15 AM 64.4 °F 53.6 °F 68% 29.89 in 10.0 mi NW 8.1 mph - N/A   Scattered Clouds
5:35 AM 62.6 °F 53.6 °F 72% 29.90 in 10.0 mi NW 5.8 mph - N/A   Scattered Clouds
5:55 AM 62.6 °F 53.6 °F 72% 29.90 in 10.0 mi NW 5.8 mph - N/A   Clear
6:15 AM 64.4 °F 53.6 °F 68% 29.90 in 10.0 mi NW 8.1 mph - N/A   Clear
6:35 AM 64.4 °F 55.4 °F 73% 29.90 in 10.0 mi WNW 8.1 mph - N/A   Clear
6:55 AM 64.4 °F 55.4 °F 73% 29.91 in 10.0 mi NW 6.9 mph - N/A   Clear
7:15 AM 66.2 °F 55.4 °F 68% 29.91 in 10.0 mi NW 6.9 mph - N/A   Clear
7:35 AM 66.2 °F 55.4 °F 68% 29.90 in 10.0 mi NW 8.1 mph - N/A   Clear
7:55 AM 68.0 °F 55.4 °F 64% 29.90 in 10.0 mi NW 9.2 mph - N/A   Clear
8:15 AM 69.8 °F 55.4 °F 60% 29.91 in 10.0 mi NW 8.1 mph - N/A   Clear
8:35 AM 69.8 °F 57.2 °F 64% 29.91 in 10.0 mi WNW 9.2 mph - N/A   Clear
8:55 AM 71.6 °F 57.2 °F 60% 29.91 in 10.0 mi NW 11.5 mph 17.3 mph N/A   Clear
9:15 AM 71.6 °F 57.2 °F 60% 29.90 in 10.0 mi NW 12.7 mph 17.3 mph N/A   Clear
9:35 AM 73.4 °F 57.2 °F 57% 29.90 in 10.0 mi NNW 12.7 mph 19.6 mph N/A   Clear
9:55 AM 73.4 °F 57.2 °F 57% 29.90 in 10.0 mi NW 17.3 mph 23.0 mph N/A   Clear
10:15 AM 73.4 °F 57.2 °F 57% 29.90 in 10.0 mi NNW 13.8 mph - N/A   Clear
10:35 AM 75.2 °F 55.4 °F 50% 29.90 in 10.0 mi NNW 17.3 mph 26.5 mph N/A   Clear
10:55 AM 75.2 °F 53.6 °F 47% 29.90 in 10.0 mi North 20.7 mph 29.9 mph N/A   Clear
11:15 AM 75.2 °F 55.4 °F 50% 29.90 in 10.0 mi NNW 18.4 mph 26.5 mph N/A   Clear
11:35 AM 75.2 °F 55.4 °F 50% 29.90 in 10.0 mi NNW 20.7 mph 27.6 mph N/A   Scattered Clouds
11:55 AM 75.2 °F 55.4 °F 50% 29.90 in 10.0 mi NNW 19.6 mph 24.2 mph N/A   Scattered Clouds
12:15 PM 77.0 °F 57.2 °F 50% 29.90 in 10.0 mi NNW 13.8 mph 25.3 mph N/A   Scattered Clouds
12:35 PM 77.0 °F 55.4 °F 47% 29.90 in 10.0 mi NNW 18.4 mph 27.6 mph N/A   Clear
12:55 PM 77.0 °F 55.4 °F 47% 29.90 in 10.0 mi NNW 16.1 mph 23.0 mph N/A   Clear
1:15 PM 78.8 °F 55.4 °F 44% 29.89 in 10.0 mi NNW 21.9 mph 29.9 mph N/A   Clear
1:35 PM 78.8 °F 55.4 °F 44% 29.89 in 10.0 mi NNW 15.0 mph 26.5 mph N/A   Clear
1:55 PM 78.8 °F 53.6 °F 42% 29.89 in 10.0 mi NNW 18.4 mph 26.5 mph N/A   Clear
2:15 PM 78.8 °F 55.4 °F 44% 29.89 in 10.0 mi NNW 18.4 mph 26.5 mph N/A   Clear
2:35 PM 78.8 °F 55.4 °F 44% 29.88 in 10.0 mi North 19.6 mph 26.5 mph N/A   Clear
2:55 PM 78.8 °F 55.4 °F 44% 29.88 in 10.0 mi NNW 17.3 mph 31.1 mph N/A   Clear
3:15 PM 75.2 °F 55.4 °F 50% 29.89 in 10.0 mi North 13.8 mph 20.7 mph N/A   Scattered Clouds
3:35 PM 75.2 °F 57.2 °F 53% 29.89 in 10.0 mi North 16.1 mph 25.3 mph N/A   Scattered Clouds
3:55 PM 75.2 °F 57.2 °F 53% 29.89 in 10.0 mi North 17.3 mph 24.2 mph N/A   Clear
4:15 PM 75.2 °F 55.4 °F 50% 29.89 in 10.0 mi North 15.0 mph 27.6 mph N/A   Clear
4:35 PM 75.2 °F 55.4 °F 50% 29.89 in 10.0 mi North 17.3 mph 24.2 mph N/A   Clear
4:55 PM 75.2 °F 55.4 °F 50% 29.89 in 10.0 mi North 13.8 mph 20.7 mph N/A   Clear
5:15 PM 73.4 °F 59.0 °F 61% 29.91 in 10.0 mi North 23.0 mph 36.8 mph N/A   Clear
5:35 PM 68.0 °F 57.2 °F 68% 29.91 in 10.0 mi North 11.5 mph 23.0 mph N/A Rain Light Rain
5:55 PM 71.6 °F 57.2 °F 60% 29.90 in 10.0 mi North 13.8 mph 19.6 mph N/A   Clear
6:15 PM 73.4 °F 57.2 °F 57% 29.89 in 10.0 mi North 11.5 mph 19.6 mph N/A   Clear
6:35 PM 75.2 °F 55.4 °F 50% 29.90 in 10.0 mi North 17.3 mph 23.0 mph N/A   Clear
6:55 PM 75.2 °F 55.4 °F 50% 29.90 in 10.0 mi North 11.5 mph 20.7 mph N/A   Clear
7:15 PM 75.2 °F 55.4 °F 50% 29.90 in 10.0 mi North 11.5 mph 18.4 mph N/A   Clear
7:35 PM 75.2 °F 55.4 °F 50% 29.90 in 10.0 mi North 8.1 mph - N/A   Clear
7:55 PM 73.4 °F 57.2 °F 57% 29.90 in 10.0 mi NNW 8.1 mph - N/A   Clear
8:15 PM 71.6 °F 57.2 °F 60% 29.91 in 10.0 mi NNW 4.6 mph - N/A   Clear
8:35 PM 71.6 °F 57.2 °F 60% 29.91 in 10.0 mi North 4.6 mph - N/A   Clear
8:55 PM 69.8 °F 57.2 °F 64% 29.92 in 10.0 mi North 6.9 mph - N/A   Clear
9:15 PM 68.0 °F 55.4 °F 64% 29.93 in 10.0 mi North 6.9 mph - N/A   Scattered Clouds
9:35 PM 69.8 °F 55.4 °F 60% 29.93 in 10.0 mi North 5.8 mph - N/A   Mostly Cloudy
9:55 PM 68.0 °F 55.4 °F 64% 29.93 in 10.0 mi North 4.6 mph - N/A   Mostly Cloudy
10:15 PM 68.0 °F 55.4 °F 64% 29.94 in 10.0 mi North 3.5 mph - N/A   Mostly Cloudy
10:35 PM 66.2 °F 55.4 °F 68% 29.95 in 10.0 mi North 3.5 mph - N/A   Scattered Clouds
10:55 PM 64.4 °F 55.4 °F 73% 29.95 in 10.0 mi Calm Calm - N/A   Scattered Clouds
11:15 PM 64.4 °F 55.4 °F 73% 29.95 in 10.0 mi Calm Calm - N/A   Scattered Clouds
11:35 PM 64.4 °F 53.6 °F 68% 29.96 in 10.0 mi Calm Calm - N/A   Scattered Clouds
11:55 PM 62.6 °F 55.4 °F 77% 29.96 in 10.0 mi Calm Calm - N/A   Scattered Clouds